[[{"header":{"parameterUnit":"m.s-1","parameterCategory":1,"la1":30.2991,"la2":30.254,"lo1":-89.0895,"lo2":-89.0444,"dy":0.0017,"dx":0.0017,"nx":28,"ny":28,"refTime":"2024-10-10T09:00:00:Z","depth":0,"parameterNumber":2,"parameterNumberName":"U-component_of_WINDS"},"data":[0,0,0,0,0,0,0,0,0,0,0,0,0,0,0,0,0,0,0,0,0,0,0,0,0,0,0,0,0,0,0,0,0,0,0,0,0,0,0,0,0,0,0,0,0,0,0,0,0,0,0,0,0,0,0,0,0,0,0.2277,0.2278,0,0.2348,0.2349,0.235,0.2387,0.2387,0.2387,0.2387,0.2461,0.2462,0.2464,0,0,0,0,0,0,0,0,0,0,0,0,0,0.2177,0.2178,0.2277,0.2278,0.2279,0.2348,0.2349,0.235,0.2387,0.2387,0.2387,0.2387,0.246,0.2462,0.2465,0,0,0,0,0,0,0,0,0,0,0,0,0,0.2231,0.2179,0.2277,0.2306,0.2309,0.2348,0.2349,0.235,0.2387,0.2387,0.2387,0.2387,0.2459,0.2462,0.2465,0.248,0,0,0.2474,0.2475,0,0,0,0,0,0,0,0,0.2228,0.2235,0.2301,0.2304,0.2308,0.2359,0.234,0.2394,0.2387,0.2357,0.2387,0.2387,0.2427,0.2432,0.2445,0.2484,0.2487,0.2474,0.2475,0.2477,0.2477,0,0,0,0,0,0,0,0.2224,0.2232,0.2305,0.2302,0.2306,0.2316,0.2324,0.2351,0.2391,0.236,0.2363,0.2371,0.2429,0.2442,0.2447,0.2488,0.2474,0.2476,0.2478,0.2479,0.2544,0.2544,0,0,0,0,0,0,0.2215,0.2229,0.2303,0.2307,0.2267,0.2318,0.2326,0.2342,0.2391,0.2398,0.2371,0.2372,0.2438,0.2444,0.245,0.2472,0.2477,0.2479,0.2481,0.2544,0.2544,0.2544,0,0,0,0,0,0,0.2213,0.2222,0.23,0.2269,0.228,0.2319,0.2337,0.2344,0.2358,0.2398,0.2406,0.2377,0.2438,0.2446,0.2473,0.2475,0.2481,0.2483,0.2544,0.2544,0.2544,0.2516,0,0,0,0,0,0,0.221,0.2221,0.2226,0.2269,0.2281,0.2321,0.2337,0.2345,0.2362,0.2365,0.2407,0.2414,0.2439,0.2468,0.2476,0.2479,0.2485,0.2544,0.2544,0.2544,0.2517,0.2515,0.2514,0,0,0,0,0,0.2206,0.2216,0.2227,0.2235,0.2289,0.2321,0.2328,0.2356,0.2362,0.2369,0.2395,0.2412,0.2474,0.2471,0.2479,0.2484,0.2544,0.2544,0.2544,0.2518,0.2515,0.2514,0,0,0,0,0,0,0.2173,0.2222,0.2234,0.2257,0.2285,0.2327,0.2336,0.2353,0.238,0.2381,0.2415,0.2425,0.2448,0.2469,0.2465,0.2502,0.2511,0.2513,0.2488,0.2486,0.2484,0.2479,0.2488,0,0,0,0,0,0.2168,0.2189,0.2231,0.2248,0.2261,0.2296,0.2311,0.2331,0.236,0.2372,0.2401,0.243,0.2456,0.2472,0.2498,0.252,0.253,0.2528,0.2526,0.2524,0.2526,0.254,0.2539,0.2545,0.2545,0.2545,0,0,0.2158,0.2188,0.2199,0.2242,0.2265,0.2287,0.2306,0.2328,0.2345,0.2376,0.2403,0.2425,0.246,0.2484,0.2497,0.2502,0.2526,0.2525,0.2523,0.2525,0.254,0.2539,0.2539,0.2545,0.2545,0.2545,0,0,0.2152,0.2176,0.2193,0.2216,0.2252,0.2276,0.228,0.232,0.2336,0.2363,0.2387,0.2409,0.2452,0.2476,0.2494,0.2498,0.2515,0.2506,0.2497,0.2511,0.251,0.251,0.2512,0.2513,0.2507,0.2507,0.2507,0,0.2136,0.217,0.2199,0.2221,0.2239,0.2268,0.2286,0.2307,0.235,0.2362,0.2368,0.2424,0.2449,0.248,0.2481,0.2495,0.2501,0.2501,0.2508,0.2508,0.2508,0.2511,0.2511,0.2506,0.2506,0.2506,0.2506,0,0.2148,0.2171,0.2181,0.2221,0.224,0.226,0.2293,0.231,0.2328,0.2351,0.2379,0.2411,0.2444,0.2453,0.2471,0.2487,0.249,0.2501,0.2511,0.2506,0.2509,0.251,0.2504,0.2504,0.2504,0.2505,0,0,0.2122,0.2179,0.2182,0.2201,0.2243,0.2262,0.2283,0.2316,0.2329,0.2358,0.2377,0.2414,0.2425,0.2445,0.2466,0.2478,0.2481,0.2488,0.249,0.2486,0.2502,0.2493,0.2493,0.2492,0.2492,0.2493,0.2499,0,0.2122,0.2161,0.2189,0.2217,0.224,0.2268,0.2287,0.2315,0.2338,0.2361,0.2386,0.2412,0.2424,0.2437,0.245,0.2477,0.2484,0.2477,0.2511,0.2512,0.2501,0.2495,0.2486,0.249,0.25,0.25,0.2501,0,0.2127,0.2155,0.2185,0.2226,0.2236,0.2252,0.2285,0.2306,0.2339,0.2355,0.2378,0.24,0.2425,0.2432,0.2467,0.2462,0.2478,0.2493,0.2494,0.2498,0.2506,0.2499,0.2492,0.2492,0.2503,0.2502,0.2502,0,0.2105,0.215,0.2175,0.219,0.2238,0.2249,0.2269,0.2302,0.232,0.2349,0.2362,0.2393,0.241,0.2435,0.2465,0.2467,0.2497,0.2507,0.2511,0.2511,0.2516,0.2515,0.2511,0.2526,0.2526,0.2526,0.2526,0,0.2102,0.212,0.2166,0.218,0.2202,0.2234,0.2255,0.2278,0.2307,0.2328,0.2355,0.2373,0.2412,0.2436,0.246,0.2485,0.2493,0.2507,0.2513,0.2505,0.2503,0.2515,0.2516,0.2526,0.2526,0.2526,0.2526,0,0.2081,0.2113,0.2141,0.2184,0.2196,0.2209,0.2247,0.2263,0.2287,0.2313,0.2321,0.236,0.239,0.2422,0.2463,0.2479,0.2503,0.2512,0.2492,0.2495,0.2499,0.2498,0.2502,0.2505,0.2517,0.2517,0.2517,0,0.2077,0.2092,0.2137,0.2152,0.2172,0.2197,0.2216,0.2249,0.2268,0.2307,0.2319,0.235,0.2377,0.2424,0.2456,0.2487,0.2497,0.2497,0.2502,0.2493,0.2498,0.2496,0.2499,0.2495,0.2494,0.2494,0.2494,0,0.2067,0.2082,0.2108,0.214,0.2162,0.2188,0.2216,0.2227,0.2266,0.2286,0.2317,0.2338,0.238,0.2411,0.2446,0.2469,0.2488,0.2492,0.2495,0.2486,0.2474,0.2482,0.2488,0.2492,0.2492,0.2492,0.2492,0.2492,0.2055,0.207,0.2104,0.2132,0.2157,0.2182,0.22,0.2227,0.2253,0.2289,0.2307,0.2338,0.2372,0.2422,0.2444,0.2469,0.2475,0.2479,0.248,0.248,0.2478,0.247,0.2475,0.2475,0.2475,0.2476,0.2476,0,0.2047,0.207,0.2096,0.2134,0.2157,0.2173,0.2205,0.2223,0.225,0.228,0.2306,0.2342,0.2373,0.2408,0.2441,0.2454,0.2464,0.2462,0.2461,0.2466,0.2471,0.2465,0.2454,0.2454,0.2454,0.2454,0.2454,0.2454,0.2045,0.2071,0.209,0.2128,0.2152,0.2182,0.2199,0.2223,0.2248,0.2286,0.2312,0.2335,0.2367,0.2403,0.2433,0.2442,0.2454,0.2449,0.2461,0.2464,0.2466,0.2468,0.2463,0.2451,0.2451,0.2455,0.2455,0.2455]},{"header":{"parameterUnit":"m.s-1","parameterCategory":1,"la1":30.2991,"la2":30.254,"lo1":-89.0895,"lo2":-89.0444,"dy":0.0017,"dx":0.0017,"nx":28,"ny":28,"refTime":"2024-10-10T09:00:00:Z","depth":0,"parameterNumber":3,"parameterNumberName":"V-component_of_WINDS"},"data":[0,0,0,0,0,0,0,0,0,0,0,0,0,0,0,0,0,0,0,0,0,0,0,0,0,0,0,0,0,0,0,0,0,0,0,0,0,0,0,0,0,0,0,0,0,0,0,0,0,0,0,0,0,0,0,0,0,0,-2.5489,-2.5489,0,-2.5489,-2.5489,-2.5489,-2.5535,-2.5537,-2.5538,-2.5539,-2.5536,-2.5534,-2.5533,0,0,0,0,0,0,0,0,0,0,0,0,0,-2.5527,-2.5526,-2.5489,-2.5489,-2.5489,-2.5489,-2.5489,-2.5489,-2.5535,-2.5537,-2.5538,-2.554,-2.5536,-2.5535,-2.5533,0,0,0,0,0,0,0,0,0,0,0,0,0,-2.5517,-2.5526,-2.5489,-2.5512,-2.5514,-2.5489,-2.5489,-2.5489,-2.5535,-2.5537,-2.5539,-2.554,-2.5536,-2.5535,-2.5533,-2.5485,0,0,-2.5527,-2.5526,0,0,0,0,0,0,0,0,-2.5518,-2.5516,-2.5509,-2.551,-2.5513,-2.5514,-2.5502,-2.5488,-2.5534,-2.5527,-2.5539,-2.5541,-2.5527,-2.5526,-2.5522,-2.5485,-2.5485,-2.5527,-2.5526,-2.5525,-2.5525,0,0,0,0,0,0,0,-2.5519,-2.5516,-2.5489,-2.5508,-2.5511,-2.5522,-2.5523,-2.5499,-2.5516,-2.5528,-2.5531,-2.5531,-2.5528,-2.5523,-2.5522,-2.5485,-2.5527,-2.5526,-2.5524,-2.5524,-2.5413,-2.5411,0,0,0,0,0,0,-2.5516,-2.5516,-2.5489,-2.5489,-2.552,-2.552,-2.5521,-2.5512,-2.5517,-2.5519,-2.5529,-2.5533,-2.5526,-2.5524,-2.5522,-2.5469,-2.5525,-2.5524,-2.5522,-2.5415,-2.5413,-2.5411,0,0,0,0,0,0,-2.5517,-2.5513,-2.5489,-2.5504,-2.5502,-2.5517,-2.5507,-2.5511,-2.5506,-2.5518,-2.5521,-2.5521,-2.5527,-2.5525,-2.5495,-2.547,-2.5523,-2.5521,-2.5417,-2.5414,-2.5412,-2.5361,0,0,0,0,0,0,-2.5518,-2.5513,-2.5495,-2.5503,-2.5501,-2.5462,-2.5506,-2.551,-2.5503,-2.5508,-2.5511,-2.5514,-2.5528,-2.5498,-2.5493,-2.5468,-2.552,-2.5419,-2.5416,-2.5412,-2.5365,-2.5357,-2.535,0,0,0,0,0,-2.5519,-2.5479,-2.5494,-2.549,-2.5478,-2.546,-2.5459,-2.5478,-2.5501,-2.5483,-2.5492,-2.5513,-2.5473,-2.5494,-2.549,-2.5464,-2.5421,-2.5417,-2.5413,-2.5369,-2.5359,-2.535,0,0,0,0,0,0,-2.5466,-2.5481,-2.5497,-2.5459,-2.5458,-2.5468,-2.5446,-2.5466,-2.5458,-2.5462,-2.5485,-2.5486,-2.5453,-2.5455,-2.5478,-2.542,-2.5451,-2.5446,-2.5419,-2.541,-2.5403,-2.5403,-2.5518,0,0,0,0,0,-2.545,-2.5435,-2.5448,-2.5413,-2.5413,-2.5429,-2.5422,-2.5437,-2.5437,-2.5437,-2.5442,-2.5441,-2.5428,-2.5419,-2.5408,-2.5366,-2.5369,-2.5346,-2.5339,-2.5332,-2.5328,-2.5309,-2.53,-2.5397,-2.5397,-2.5397,0,0,-2.5416,-2.5422,-2.5411,-2.5403,-2.5404,-2.5389,-2.5429,-2.5409,-2.5398,-2.5433,-2.5407,-2.5411,-2.5411,-2.5376,-2.5361,-2.5377,-2.5302,-2.5327,-2.5322,-2.5321,-2.5304,-2.5295,-2.5287,-2.5394,-2.5395,-2.5395,0,0,-2.5347,-2.535,-2.5323,-2.5324,-2.5327,-2.5339,-2.5333,-2.534,-2.5346,-2.532,-2.5347,-2.5334,-2.5311,-2.5311,-2.5308,-2.5243,-2.5264,-2.5239,-2.5199,-2.5181,-2.5174,-2.5167,-2.5146,-2.5138,-2.5234,-2.5234,-2.5234,0,-2.5304,-2.5282,-2.5305,-2.5286,-2.5282,-2.5316,-2.529,-2.529,-2.5288,-2.5285,-2.5303,-2.5278,-2.528,-2.5247,-2.5232,-2.5227,-2.5222,-2.5238,-2.5173,-2.5167,-2.5161,-2.5141,-2.5133,-2.5231,-2.5231,-2.5232,-2.5232,0,-2.5231,-2.5216,-2.5194,-2.5194,-2.5188,-2.5164,-2.5185,-2.5176,-2.5192,-2.5203,-2.5178,-2.5182,-2.5174,-2.5167,-2.5181,-2.5137,-2.5148,-2.5169,-2.5201,-2.5148,-2.5131,-2.5123,-2.5227,-2.5228,-2.5229,-2.5229,0,0,-2.5126,-2.5143,-2.5135,-2.5137,-2.5144,-2.5133,-2.5112,-2.5106,-2.5099,-2.5097,-2.5082,-2.5064,-2.5085,-2.5081,-2.5096,-2.508,-2.5033,-2.5104,-2.5105,-2.5092,-2.4987,-2.4972,-2.4963,-2.5047,-2.5045,-2.5044,-2.4988,0,-2.5061,-2.5028,-2.505,-2.5013,-2.5001,-2.5035,-2.5017,-2.502,-2.503,-2.5021,-2.5031,-2.5019,-2.5047,-2.5046,-2.5031,-2.5041,-2.5012,-2.5046,-2.5033,-2.5032,-2.5033,-2.4953,-2.4936,-2.4883,-2.4981,-2.498,-2.4979,0,-2.498,-2.4979,-2.4942,-2.4955,-2.4951,-2.4935,-2.4933,-2.4924,-2.4928,-2.4937,-2.4935,-2.4956,-2.4938,-2.497,-2.4945,-2.4968,-2.4964,-2.4969,-2.4967,-2.4967,-2.5003,-2.4953,-2.4866,-2.4859,-2.4968,-2.4969,-2.4969,0,-2.4911,-2.4899,-2.4876,-2.4877,-2.4891,-2.488,-2.4885,-2.4892,-2.4888,-2.4887,-2.4885,-2.488,-2.4878,-2.4874,-2.4894,-2.4915,-2.4868,-2.4901,-2.4875,-2.4875,-2.4864,-2.4865,-2.4777,-2.4859,-2.4859,-2.486,-2.486,0,-2.4837,-2.4813,-2.4846,-2.4831,-2.4807,-2.4833,-2.4808,-2.4816,-2.4823,-2.4812,-2.484,-2.4829,-2.4854,-2.4846,-2.4861,-2.484,-2.4838,-2.4845,-2.485,-2.4844,-2.4843,-2.4842,-2.4847,-2.4858,-2.4858,-2.4858,-2.4859,0,-2.4754,-2.4775,-2.4753,-2.477,-2.4774,-2.4755,-2.477,-2.4758,-2.4771,-2.4757,-2.4755,-2.4776,-2.4768,-2.4787,-2.4781,-2.4791,-2.4762,-2.4772,-2.4761,-2.4765,-2.4739,-2.4742,-2.4649,-2.4639,-2.4726,-2.4725,-2.4724,0,-2.4706,-2.4689,-2.4706,-2.4702,-2.4706,-2.4698,-2.4696,-2.4721,-2.4718,-2.4725,-2.4712,-2.4707,-2.4705,-2.4691,-2.4705,-2.4701,-2.4712,-2.468,-2.4711,-2.4707,-2.4714,-2.4715,-2.4715,-2.4673,-2.4672,-2.4671,-2.467,0,-2.4619,-2.4631,-2.4627,-2.4628,-2.4626,-2.4627,-2.463,-2.4624,-2.4652,-2.4647,-2.4641,-2.4639,-2.4635,-2.463,-2.4631,-2.4636,-2.4658,-2.4661,-2.4655,-2.4649,-2.4645,-2.4649,-2.4745,-2.4663,-2.4663,-2.4664,-2.4664,-2.4665,-2.4554,-2.4542,-2.4553,-2.4549,-2.4555,-2.4558,-2.4549,-2.4563,-2.4559,-2.4559,-2.4574,-2.4565,-2.4574,-2.4577,-2.4581,-2.4575,-2.4589,-2.458,-2.4578,-2.4576,-2.4573,-2.4645,-2.4574,-2.4574,-2.4575,-2.4575,-2.4575,0,-2.447,-2.448,-2.4476,-2.4482,-2.4479,-2.4502,-2.4508,-2.4504,-2.4497,-2.4503,-2.4501,-2.4496,-2.4492,-2.4508,-2.4507,-2.4499,-2.4509,-2.4498,-2.4499,-2.4501,-2.4559,-2.4565,-2.449,-2.449,-2.449,-2.449,-2.449,-2.449,-2.4427,-2.4409,-2.4423,-2.441,-2.4419,-2.4413,-2.4414,-2.4418,-2.4424,-2.4417,-2.4416,-2.4426,-2.4437,-2.4438,-2.4436,-2.4441,-2.444,-2.4425,-2.4434,-2.4488,-2.4496,-2.4504,-2.451,-2.4425,-2.4425,-2.4377,-2.4376,-2.4376]}]]